Time,TemperatureF,DewpointF,PressureIn,WindDirection,WindDirectionDegrees,WindSpeedMPH,WindSpeedGustMPH,Humidity,HourlyPrecipIn,Conditions,Clouds,dailyrainin,SoftwareType,DateUTC
2013-03-05 00:01:00,22.0,21.0,-100.00,ENE,65,4.0,4.0,95,0.00,,,0.00,,2013-03-05 06:01:00,
2013-03-05 00:11:00,22.0,21.0,-100.00,ENE,70,5.0,7.0,95,0.00,,,0.00,,2013-03-05 06:11:00,
2013-03-05 00:22:00,22.0,21.0,-100.00,ENE,60,4.0,7.0,95,0.00,,,0.00,,2013-03-05 06:22:00,
2013-03-05 00:31:00,22.0,21.0,-100.00,ENE,60,5.0,7.0,95,0.00,,,0.00,,2013-03-05 06:31:00,
2013-03-05 00:41:00,22.0,21.0,-100.00,ENE,70,6.0,7.0,95,0.00,,,0.00,,2013-03-05 06:41:00,
2013-03-05 00:52:00,23.0,21.0,-100.00,East,80,7.0,8.0,95,0.00,,,0.00,,2013-03-05 06:52:00,
2013-03-05 01:01:00,23.0,21.0,-100.00,ENE,70,7.0,11.0,95,0.00,,,0.00,,2013-03-05 07:01:00,
2013-03-05 01:11:00,23.0,21.0,-100.00,ENE,75,7.0,11.0,95,0.00,,,0.00,,2013-03-05 07:11:00,
2013-03-05 01:21:00,23.0,21.0,-100.00,ENE,60,7.0,11.0,95,0.00,,,0.00,,2013-03-05 07:21:00,
2013-03-05 01:31:00,23.0,21.0,-100.00,ENE,65,7.0,9.0,95,0.00,,,0.00,,2013-03-05 07:31:00,
2013-03-05 01:41:00,23.0,21.0,-100.00,ENE,60,7.0,9.0,95,0.00,,,0.00,,2013-03-05 07:41:00,
2013-03-05 01:51:00,23.0,21.0,-100.00,ENE,60,9.0,12.0,95,0.00,,,0.00,,2013-03-05 07:51:00,
2013-03-05 02:02:00,23.0,21.0,-100.00,ENE,75,7.0,9.0,95,0.00,,,0.00,,2013-03-05 08:02:00,
2013-03-05 02:11:00,23.0,21.0,-100.00,ENE,70,7.0,10.0,95,0.00,,,0.00,,2013-03-05 08:11:00,
2013-03-05 02:21:00,23.0,21.0,-100.00,ENE,60,6.0,9.0,95,0.00,,,0.00,,2013-03-05 08:21:00,
2013-03-05 02:31:00,23.0,21.0,-100.00,NE,55,6.0,9.0,95,0.00,,,0.00,,2013-03-05 08:31:00,
2013-03-05 02:41:00,23.0,21.0,-100.00,ENE,65,6.0,9.0,95,0.00,,,0.00,,2013-03-05 08:41:00,
2013-03-05 02:52:00,23.0,21.0,-100.00,NE,50,6.0,9.0,95,0.00,,,0.00,,2013-03-05 08:52:00,
2013-03-05 03:01:00,23.0,21.0,-100.00,ENE,60,4.0,7.0,95,0.00,,,0.00,,2013-03-05 09:01:00,
2013-03-05 03:11:00,23.0,21.0,-100.00,ENE,60,4.0,7.0,95,0.00,,,0.00,,2013-03-05 09:11:00,
2013-03-05 03:21:00,23.0,21.0,-100.00,NE,50,4.0,7.0,95,0.00,,,0.00,,2013-03-05 09:21:00,
2013-03-05 03:31:00,23.0,21.0,-100.00,NE,45,3.0,7.0,95,0.00,,,0.00,,2013-03-05 09:31:00,
2013-03-05 03:42:00,22.0,21.0,-100.00,NE,40,4.0,7.0,95,0.00,,,0.00,,2013-03-05 09:42:00,
2013-03-05 03:52:00,22.0,21.0,-100.00,NE,35,4.0,7.0,95,0.00,,,0.00,,2013-03-05 09:52:00,
2013-03-05 04:01:00,22.0,21.0,-100.00,NE,45,4.0,7.0,95,0.00,,,0.00,,2013-03-05 10:01:00,
2013-03-05 04:11:00,22.0,21.0,-100.00,NE,45,2.0,6.0,95,0.00,,,0.00,,2013-03-05 10:11:00,
2013-03-05 04:21:00,22.0,21.0,-100.00,NE,35,4.0,7.0,95,0.00,,,0.00,,2013-03-05 10:21:00,
2013-03-05 04:32:00,22.0,21.0,-100.00,NE,45,4.0,7.0,95,0.00,,,0.00,,2013-03-05 10:32:00,
2013-03-05 04:42:00,23.0,21.0,-100.00,NNE,30,4.0,6.0,95,0.00,,,0.00,,2013-03-05 10:42:00,
2013-03-05 04:51:00,22.0,21.0,-100.00,NNE,25,3.0,6.0,95,0.00,,,0.00,,2013-03-05 10:51:00,
2013-03-05 05:01:00,22.0,21.0,-100.00,NNE,30,2.0,4.0,95,0.00,,,0.00,,2013-03-05 11:01:00,
2013-03-05 05:11:00,22.0,21.0,-100.00,NNE,25,2.0,4.0,95,0.00,,,0.00,,2013-03-05 11:11:00,
2013-03-05 05:22:00,22.0,21.0,-100.00,NE,35,4.0,7.0,95,0.00,,,0.00,,2013-03-05 11:22:00,
2013-03-05 05:32:00,22.0,21.0,-100.00,NNE,30,4.0,7.0,95,0.00,,,0.00,,2013-03-05 11:32:00,
2013-03-05 05:42:00,22.0,21.0,-100.00,NE,35,3.0,6.0,95,0.00,,,0.00,,2013-03-05 11:42:00,
2013-03-05 05:52:00,22.0,21.0,-100.00,NE,35,4.0,6.0,95,0.00,,,0.00,,2013-03-05 11:52:00,
2013-03-05 06:02:00,22.0,21.0,-100.00,NNE,25,3.0,6.0,95,0.00,,,0.00,,2013-03-05 12:02:00,
2013-03-05 06:11:00,22.0,21.0,-100.00,North,0,3.0,7.0,95,0.00,,,0.00,,2013-03-05 12:11:00,
2013-03-05 06:22:00,22.0,21.0,-100.00,North,5,4.0,8.0,95,0.00,,,0.00,,2013-03-05 12:22:00,
2013-03-05 06:32:00,22.0,21.0,-100.00,North,0,4.0,7.0,95,0.00,,,0.00,,2013-03-05 12:32:00,
2013-03-05 06:42:00,22.0,21.0,-100.00,North,0,4.0,6.0,95,0.00,,,0.00,,2013-03-05 12:42:00,
2013-03-05 06:52:00,22.0,21.0,-100.00,NNE,20,4.0,7.0,95,0.00,,,0.00,,2013-03-05 12:52:00,
2013-03-05 07:02:00,22.0,21.0,-100.00,North,10,4.0,6.0,95,0.00,,,0.00,,2013-03-05 13:02:00,
2013-03-05 07:11:00,22.0,21.0,-100.00,North,5,5.0,9.0,95,0.00,,,0.00,,2013-03-05 13:11:00,
2013-03-05 07:21:00,22.0,21.0,-100.00,North,0,6.0,7.0,95,0.00,,,0.00,,2013-03-05 13:21:00,
2013-03-05 07:32:00,22.0,21.0,-100.00,North,0,4.0,9.0,95,0.00,,,0.00,,2013-03-05 13:32:00,
2013-03-05 07:42:00,22.0,21.0,-100.00,NNE,20,3.0,7.0,95,0.00,,,0.00,,2013-03-05 13:42:00,
2013-03-05 07:52:00,22.0,21.0,-100.00,North,0,4.0,6.0,95,0.00,,,0.00,,2013-03-05 13:52:00,
2013-03-05 08:02:00,22.0,21.0,-100.00,North,355,3.0,6.0,95,0.00,,,0.00,,2013-03-05 14:02:00,
2013-03-05 08:11:00,22.0,21.0,-100.00,North,0,4.0,6.0,95,0.00,,,0.00,,2013-03-05 14:11:00,
2013-03-05 08:21:00,22.0,21.0,-100.00,North,350,3.0,6.0,95,0.00,,,0.00,,2013-03-05 14:21:00,
2013-03-05 08:32:00,23.0,21.0,-100.00,North,0,5.0,8.0,95,0.00,,,0.00,,2013-03-05 14:32:00,
2013-03-05 08:42:00,23.0,21.0,-100.00,North,0,5.0,7.0,94,0.00,,,0.00,,2013-03-05 14:42:00,
2013-03-05 08:52:00,23.0,21.0,-100.00,North,0,3.0,7.0,94,0.00,,,0.00,,2013-03-05 14:52:00,
2013-03-05 09:01:00,23.0,21.0,-100.00,North,10,4.0,7.0,93,0.00,,,0.00,,2013-03-05 15:01:00,
2013-03-05 09:11:00,23.0,21.0,-100.00,North,5,6.0,9.0,93,0.00,,,0.00,,2013-03-05 15:11:00,
2013-03-05 09:21:00,23.0,21.0,-100.00,North,0,4.0,8.0,93,0.00,,,0.00,,2013-03-05 15:21:00,
2013-03-05 09:32:00,23.0,21.0,-100.00,North,0,7.0,12.0,92,0.00,,,0.00,,2013-03-05 15:32:00,
2013-03-05 09:42:00,23.0,21.0,-100.00,NNE,30,7.0,14.0,91,0.00,,,0.00,,2013-03-05 15:42:00,
2013-03-05 09:51:00,23.0,21.0,-100.00,North,10,7.0,13.0,90,0.00,,,0.00,,2013-03-05 15:51:00,
2013-03-05 10:01:00,23.0,21.0,-100.00,North,350,6.0,9.0,90,0.00,,,0.00,,2013-03-05 16:01:00,
2013-03-05 10:11:00,24.0,21.0,-100.00,NE,35,6.0,9.0,89,0.00,,,0.00,,2013-03-05 16:11:00,
2013-03-05 10:21:00,24.0,21.0,-100.00,North,0,6.0,9.0,88,0.00,,,0.00,,2013-03-05 16:21:00,
2013-03-05 10:32:00,24.0,21.0,-100.00,North,355,6.0,12.0,87,0.00,,,0.00,,2013-03-05 16:32:00,
2013-03-05 10:42:00,24.0,21.0,-100.00,North,0,6.0,11.0,87,0.00,,,0.00,,2013-03-05 16:42:00,
2013-03-05 10:51:00,24.0,21.0,-100.00,North,0,6.0,10.0,86,0.00,,,0.00,,2013-03-05 16:51:00,
2013-03-05 11:01:00,24.0,21.0,-100.00,North,0,6.0,12.0,85,0.00,,,0.00,,2013-03-05 17:01:00,
2013-03-05 11:11:00,24.0,21.0,-100.00,North,5,7.0,12.0,85,0.00,,,0.00,,2013-03-05 17:11:00,
2013-03-05 11:21:00,25.0,21.0,-100.00,NNE,15,4.0,9.0,85,0.00,,,0.00,,2013-03-05 17:21:00,
2013-03-05 11:32:00,26.0,21.0,-100.00,NNE,30,4.0,12.0,84,0.00,,,0.00,,2013-03-05 17:32:00,
2013-03-05 11:41:00,25.0,21.0,-100.00,NNE,15,6.0,9.0,83,0.00,,,0.00,,2013-03-05 17:41:00,
2013-03-05 11:52:00,25.0,21.0,-100.00,NE,35,7.0,12.0,83,0.00,,,0.00,,2013-03-05 17:52:00,
2013-03-05 12:01:00,26.0,21.0,-100.00,North,0,6.0,12.0,82,0.00,,,0.00,,2013-03-05 18:01:00,
2013-03-05 12:11:00,25.0,21.0,-100.00,North,0,7.0,14.0,82,0.00,,,0.00,,2013-03-05 18:11:00,
2013-03-05 12:21:00,25.0,19.0,-100.00,NNE,30,8.0,12.0,81,0.00,,,0.00,,2013-03-05 18:21:00,
2013-03-05 12:32:00,25.0,19.0,-100.00,North,5,8.0,14.0,80,0.00,,,0.00,,2013-03-05 18:32:00,
2013-03-05 12:42:00,26.0,19.0,-100.00,North,355,7.0,12.0,80,0.00,,,0.00,,2013-03-05 18:42:00,
2013-03-05 12:52:00,26.0,21.0,-100.00,North,0,6.0,12.0,79,0.00,,,0.00,,2013-03-05 18:52:00,
2013-03-05 13:01:00,26.0,19.0,-100.00,North,10,7.0,12.0,78,0.00,,,0.00,,2013-03-05 19:01:00,
2013-03-05 13:11:00,26.0,21.0,-100.00,North,10,6.0,12.0,77,0.00,,,0.00,,2013-03-05 19:11:00,
2013-03-05 13:21:00,26.0,19.0,-100.00,NNE,25,11.0,15.0,77,0.00,,,0.00,,2013-03-05 19:21:00,
2013-03-05 13:32:00,26.0,19.0,-100.00,North,5,9.0,13.0,78,0.00,,,0.00,,2013-03-05 19:32:00,
2013-03-05 13:42:00,26.0,21.0,-100.00,NNE,15,6.0,11.0,78,0.00,,,0.00,,2013-03-05 19:42:00,
2013-03-05 13:51:00,27.0,21.0,-100.00,North,0,6.0,12.0,78,0.00,,,0.00,,2013-03-05 19:51:00,
2013-03-05 14:01:00,26.0,19.0,-100.00,North,355,7.0,14.0,78,0.00,,,0.00,,2013-03-05 20:01:00,
2013-03-05 14:11:00,26.0,19.0,-100.00,North,10,7.0,13.0,77,0.00,,,0.00,,2013-03-05 20:11:00,
2013-03-05 14:21:00,26.0,19.0,-100.00,North,0,7.0,12.0,77,0.00,,,0.00,,2013-03-05 20:21:00,
2013-03-05 14:32:00,26.0,19.0,-100.00,North,10,8.0,13.0,76,0.00,,,0.00,,2013-03-05 20:32:00,
2013-03-05 14:41:00,27.0,19.0,-100.00,North,355,6.0,12.0,75,0.00,,,0.00,,2013-03-05 20:41:00,
2013-03-05 14:52:00,27.0,19.0,-100.00,NNE,15,6.0,9.0,74,0.00,,,0.00,,2013-03-05 20:52:00,
2013-03-05 15:02:00,27.0,19.0,-100.00,North,5,7.0,11.0,72,0.00,,,0.00,,2013-03-05 21:02:00,
2013-03-05 15:11:00,27.0,19.0,-100.00,North,0,9.0,13.0,72,0.00,,,0.00,,2013-03-05 21:11:00,
2013-03-05 15:21:00,27.0,19.0,-100.00,North,0,6.0,11.0,71,0.00,,,0.00,,2013-03-05 21:21:00,
2013-03-05 15:31:00,27.0,19.0,-100.00,North,355,6.0,12.0,70,0.00,,,0.00,,2013-03-05 21:31:00,
2013-03-05 15:41:00,28.0,19.0,-100.00,North,0,6.0,12.0,69,0.00,,,0.00,,2013-03-05 21:41:00,
2013-03-05 15:52:00,26.0,18.0,-100.00,NE,40,6.0,14.0,70,0.00,,,0.00,,2013-03-05 21:52:00,
2013-03-05 16:01:00,26.0,19.0,-100.00,North,5,6.0,10.0,71,0.00,,,0.00,,2013-03-05 22:01:00,
2013-03-05 16:11:00,26.0,18.0,-100.00,North,0,7.0,11.0,71,0.00,,,0.00,,2013-03-05 22:11:00,
2013-03-05 16:21:00,26.0,18.0,-100.00,North,0,7.0,11.0,71,0.00,,,0.00,,2013-03-05 22:21:00,
2013-03-05 16:32:00,26.0,18.0,-100.00,NE,40,4.0,12.0,71,0.00,,,0.00,,2013-03-05 22:32:00,
2013-03-05 16:41:00,26.0,18.0,-100.00,North,355,4.0,7.0,71,0.00,,,0.00,,2013-03-05 22:41:00,
2013-03-05 16:52:00,25.0,18.0,-100.00,North,0,4.0,11.0,71,0.00,,,0.00,,2013-03-05 22:52:00,
2013-03-05 17:01:00,26.0,18.0,-100.00,North,0,5.0,9.0,71,0.00,,,0.00,,2013-03-05 23:01:00,
2013-03-05 17:11:00,26.0,18.0,-100.00,NNE,25,4.0,7.0,73,0.00,,,0.00,,2013-03-05 23:11:00,
2013-03-05 17:21:00,26.0,19.0,-100.00,North,10,3.0,7.0,75,0.00,,,0.00,,2013-03-05 23:21:00,
2013-03-05 17:32:00,25.0,18.0,-100.00,North,0,6.0,9.0,75,0.00,,,0.00,,2013-03-05 23:32:00,
2013-03-05 17:41:00,24.0,18.0,-100.00,North,5,4.0,8.0,77,0.00,,,0.00,,2013-03-05 23:41:00,
2013-03-05 17:52:00,24.0,18.0,-100.00,NNE,15,2.0,7.0,79,0.00,,,0.00,,2013-03-05 23:52:00,
2013-03-05 18:01:00,24.0,18.0,-100.00,North,0,3.0,4.0,80,0.00,,,0.00,,2013-03-06 00:01:00,
2013-03-05 18:11:00,23.0,19.0,-100.00,North,5,2.0,4.0,81,0.00,,,0.00,,2013-03-06 00:11:00,
2013-03-05 18:21:00,24.0,19.0,-100.00,North,0,4.0,9.0,82,0.00,,,0.00,,2013-03-06 00:21:00,
2013-03-05 18:32:00,24.0,19.0,-100.00,North,355,5.0,12.0,82,0.00,,,0.00,,2013-03-06 00:32:00,
2013-03-05 18:41:00,23.0,19.0,-100.00,North,0,4.0,7.0,82,0.00,,,0.00,,2013-03-06 00:41:00,
2013-03-05 18:51:00,23.0,19.0,-100.00,NNE,30,4.0,7.0,82,0.00,,,0.00,,2013-03-06 00:51:00,
2013-03-05 19:01:00,23.0,19.0,-100.00,NE,40,2.0,5.0,83,0.00,,,0.00,,2013-03-06 01:01:00,
2013-03-05 19:11:00,23.0,19.0,-100.00,North,0,2.0,5.0,83,0.00,,,0.00,,2013-03-06 01:11:00,
2013-03-05 19:21:00,23.0,19.0,-100.00,North,5,2.0,5.0,84,0.00,,,0.00,,2013-03-06 01:21:00,
2013-03-05 19:32:00,23.0,19.0,-100.00,NW,325,1.0,4.0,84,0.00,,,0.00,,2013-03-06 01:32:00,
2013-03-05 19:41:00,23.0,19.0,-100.00,North,5,2.0,3.0,85,0.00,,,0.00,,2013-03-06 01:41:00,
2013-03-05 19:51:00,22.0,19.0,-100.00,North,0,1.0,3.0,85,0.00,,,0.00,,2013-03-06 01:51:00,
2013-03-05 20:01:00,22.0,19.0,-100.00,North,0,4.0,6.0,86,0.00,,,0.00,,2013-03-06 02:01:00,
2013-03-05 20:11:00,22.0,18.0,-100.00,North,5,3.0,4.0,87,0.00,,,0.00,,2013-03-06 02:11:00,
2013-03-05 20:21:00,21.0,18.0,-100.00,North,0,3.0,6.0,88,0.00,,,0.00,,2013-03-06 02:21:00,
2013-03-05 20:32:00,21.0,18.0,-100.00,NW,315,2.0,5.0,89,0.00,,,0.00,,2013-03-06 02:32:00,
2013-03-05 20:41:00,21.0,18.0,-100.00,NNW,330,1.0,3.0,89,0.00,,,0.00,,2013-03-06 02:41:00,
2013-03-05 20:52:00,20.0,18.0,-100.00,NNW,345,2.0,4.0,89,0.00,,,0.00,,2013-03-06 02:52:00,
2013-03-05 21:01:00,20.0,18.0,-100.00,WNW,295,1.0,5.0,90,0.00,,,0.00,,2013-03-06 03:01:00,
2013-03-05 21:11:00,21.0,18.0,-100.00,North,0,3.0,4.0,90,0.00,,,0.00,,2013-03-06 03:11:00,
2013-03-05 21:21:00,21.0,18.0,-100.00,North,0,2.0,5.0,90,0.00,,,0.00,,2013-03-06 03:21:00,
2013-03-05 21:31:00,21.0,19.0,-100.00,North,0,2.0,5.0,90,0.00,,,0.00,,2013-03-06 03:31:00,
2013-03-05 21:42:00,21.0,19.0,-100.00,North,5,3.0,6.0,90,0.00,,,0.00,,2013-03-06 03:42:00,
2013-03-05 21:52:00,21.0,19.0,-100.00,North,0,3.0,5.0,90,0.00,,,0.00,,2013-03-06 03:52:00,
2013-03-05 22:02:00,21.0,19.0,-100.00,North,0,1.0,4.0,90,0.00,,,0.00,,2013-03-06 04:02:00,
2013-03-05 22:11:00,21.0,19.0,-100.00,North,355,2.0,4.0,90,0.00,,,0.00,,2013-03-06 04:11:00,
2013-03-05 22:21:00,21.0,19.0,-100.00,NW,320,3.0,7.0,89,0.00,,,0.00,,2013-03-06 04:21:00,
2013-03-05 22:32:00,21.0,18.0,-100.00,NW,310,3.0,7.0,88,0.00,,,0.00,,2013-03-06 04:32:00,
2013-03-05 22:41:00,21.0,18.0,-100.00,NW,325,5.0,9.0,87,0.00,,,0.00,,2013-03-06 04:41:00,
2013-03-05 22:51:00,21.0,18.0,-100.00,North,350,2.0,6.0,86,0.00,,,0.00,,2013-03-06 04:51:00,
2013-03-05 23:01:00,21.0,18.0,-100.00,NW,315,4.0,8.0,85,0.00,,,0.00,,2013-03-06 05:01:00,
2013-03-05 23:11:00,21.0,18.0,-100.00,NNW,330,5.0,10.0,85,0.00,,,0.00,,2013-03-06 05:11:00,
2013-03-05 23:22:00,20.0,16.0,-100.00,NW,325,5.0,9.0,84,0.00,,,0.00,,2013-03-06 05:22:00,
2013-03-05 23:32:00,20.0,16.0,-100.00,NW,305,4.0,7.0,84,0.00,,,0.00,,2013-03-06 05:32:00,
2013-03-05 23:42:00,20.0,16.0,-100.00,NNW,330,4.0,7.0,84,0.00,,,0.00,,2013-03-06 05:42:00,
2013-03-05 23:52:00,20.0,16.0,-100.00,NW,310,4.0,7.0,84,0.00,,,0.00,,2013-03-06 05:52:00,